Location: Radomski Observatory
(40.2854°N, 79.5145°W)
Time: 17:15:45
(UTC-05:00)

Daily predictions for brighter satellites

Satellite Brightness Start Highest point End
(mag) Time Altitude Azimuth Time Altitude Azimuth Time Altitude Azimuth
USA 234 3.6 17:10:30 10° NE 17:16:57 57° SE 17:23:19 10° SSW
Meteor 2-19 Rocket 4.5 17:12:35 10° N 17:18:40 89° E 17:24:44 10° S
CRYOSAT 2 4.4 17:14:03 10° N 17:18:57 67° E 17:23:47 10° S
YAOGAN 1 3.1 17:15:14 10° SE 17:19:11 36° ENE 17:23:08 10° N
PAYLOAD A 3.9 17:15:43 10° SSE 17:20:33 70° ENE 17:25:36 10° N
Cosmos 1500 3.6 17:21:06 10° N 17:24:46 41° E 17:28:25 10° SSE
CZ-2C R/B 2.6 17:21:44 10° SSE 17:26:37 53° ENE 17:31:39 10° N
Cosmos 1743 3.9 17:24:09 10° NNE 17:27:11 21° ENE 17:30:11 10° SE
IRS-1A Rocket 4.4 17:22:37 10° SSE 17:28:07 81° WSW 17:33:41 10° NNW
Nadezhda 3 Rocket 4.4 17:23:27 10° SSE 17:29:13 42° E 17:35:04 10° NNE
NOSS 3-4 (A) 4.4 17:23:13 10° NNW 17:29:27 33° NE 17:35:59 10° ESE
NOSS 3-4 (C) 4.4 17:23:19 10° NNW 17:29:33 33° NE 17:36:04 10° ESE
NOSS 3-3 (A) 4.5 17:29:30 10° SW 17:35:37 63° NW 17:42:17 10° NNE
NOSS 3-3 (C) 4.4 17:29:36 10° SW 17:35:43 64° NW 17:42:23 10° NNE
Cosmos 1455 Rocket 3.4 17:31:31 10° NNW 17:35:56 72° W 17:40:20 10° S
Delta 2 Rocket 4.1 17:37:28 10° WSW 17:40:48 39° S 17:44:26 10° ESE
ATLAS 2AS CENTAUR R/B 4.2 17:36:52 10° NW 17:44:24 46° WSW 17:51:25 10° S
Cosmos 2056 Rocket 4.5 17:40:29 10° SSE 17:45:00 28° E 17:49:18 11° NE
Cosmos 1484 Rocket 3.6 17:42:00 10° SE 17:45:11 27° ENE 17:48:21 10° NNE
SJ-7 4.4 17:45:01 10° SSE 17:49:13 75° ENE 17:53:29 10° N
Cosmos 1809 Rocket 4.4 17:43:46 10° N 17:49:55 72° E 17:55:59 10° SSE
SMAP 3.0 17:46:36 10° SSE 17:51:15 89° ENE 17:55:55 10° NNW
Cosmos 2369 Rocket 3.9 17:52:39 10° ESE 17:54:50 12° E 17:54:58 12° E
CORIOLIS 4.1 17:49:53 10° SSE 17:55:18 84° ENE 18:00:42 10° NNW
Cosmos 1975 3.5 17:53:08 10° NNW 17:57:08 59° W 18:01:05 10° S
SL-24 DEB 4.2 17:52:38 10° N 17:57:22 73° E 18:02:01 10° S
Cosmos 1624 Rocket 4.5 17:52:57 10° S 17:57:45 39° ESE 18:02:04 13° NE
Meteor 1-13 Rocket 4.2 17:56:52 10° S 18:02:33 77° E 18:08:24 10° NNE
Meteor 2-4 Rocket 3.9 17:58:06 10° SSE 18:03:07 42° E 18:08:08 10° NNE
Okean 1-7 Rocket 3.5 17:59:05 10° S 18:03:32 67° E 18:07:59 10° NNE
Cosmos 1371 Rocket 4.1 17:58:28 10° S 18:03:41 57° ESE 18:08:53 10° NNE
CZ-4 R/B 4.4 18:01:41 10° SSE 18:05:50 90° ENE 18:10:01 10° NNW
CZ-4 R/B 2.8 18:03:18 10° S 18:07:15 42° W 18:11:11 10° NNW
Tiangong 1 1.3 18:05:15 10° W 18:08:14 52° N 18:09:19 32° NE
ISS -0.9 18:09:02 10° NNW 18:10:18 12° N 18:10:47 11° N
SPOT 3 Rocket 4.2 18:06:32 10° S 18:11:38 58° W 18:16:45 10° NNW
MSX 3.8 18:06:17 10° SSE 18:12:02 90° E 18:17:49 10° NNW
Cosmos 1934 Rocket 4.2 18:06:39 10° N 18:12:38 47° ENE 18:18:40 10° SSE
COSMOS 2487 4.3 18:09:40 10° NW 18:12:58 34° WSW 18:16:14 10° S
Cosmos 1340 4.1 18:16:57 10° SSE 18:18:56 21° ESE 18:18:56 21° ESE
Cosmos 1535 Rocket 4.4 18:16:39 10° N 18:22:57 72° E 18:29:06 10° SSE
Cosmos 1606 Rocket 3.7 18:19:24 10° N 18:23:45 48° E 18:28:05 10° SSE
NOSS 2-1 (D) 4.2 18:22:55 10° SW 18:26:38 47° NW 18:29:24 19° NNE
NOSS 2-1 (C) 4.1 18:23:34 10° SW 18:27:19 48° NW 18:30:04 19° NNE
COSMO-SKYMED 1 2.5 18:28:02 11° NNE 18:32:16 87° WNW 18:36:36 10° SSW
Cosmos 1452 Rocket 4.2 18:29:16 10° SSE 18:33:52 32° E 18:33:52 32° E
Cosmos 2239 Rocket 4.4 18:28:33 10° N 18:34:46 90° W 18:40:55 10° S
Cosmos 1190 Rocket 3.9 18:29:50 10° NNW 18:35:02 60° ENE 18:40:09 10° SSE
Cosmos 2278 Rocket 4.3 18:31:08 10° WSW 18:35:25 22° NW 18:39:42 10° N
GEOS 3 Rocket 4.1 18:36:10 35° ENE 18:36:42 36° NE 18:41:20 10° NNW
Cosmos 921 Rocket 4.4 18:33:07 10° SW 18:37:05 37° WNW 18:41:09 10° N
Cosmos 1025 Rocket 3.1 18:34:05 10° S 18:38:28 78° W 18:42:27 13° N
Cosmos 1666 2.6 18:35:09 10° N 18:39:02 87° E 18:42:55 10° S
BREEZE-M DEB (TANK) 4.5 18:44:42 10° NW 18:45:01 12° NNW 18:45:01 12° NNW
Cosmos 1821 Rocket 4.1 18:41:16 10° N 18:47:22 75° W 18:53:26 10° S
Cosmos 1833 Rocket 3.8 18:46:18 10° NW 18:51:38 44° WSW 18:56:55 10° S
Cosmos 1605 Rocket 3.8 18:51:54 10° N 18:58:12 75° E 19:04:21 10° SSE
USA 234 4.0 18:56:14 24° NNE 18:59:49 46° NNW 19:05:58 10° WSW
CZ-3B DEB 4.0 18:54:55 10° WNW 18:59:54 33° N 19:04:32 24° NE
Cosmos 2082 Rocket 4.0 18:56:00 10° NW 19:00:56 31° WSW 19:05:53 10° SSW
Meteor 1-28 Rocket 3.9 19:06:27 50° NW 19:06:48 52° WNW 19:10:28 10° SSW
BREEZE M DEB (TANK) 3.5 19:08:06 10° W 19:13:17 36° NW 19:13:17 36° NW
NOSS 3-4 (A) 4.3 19:13:49 10° NW 19:20:46 60° WSW 19:28:06 10° SSE
NOSS 3-4 (C) 4.3 19:13:55 10° NW 19:20:52 61° WSW 19:28:13 10° SSE
Cosmos 407 Rocket 4.0 19:20:08 10° NNW 19:25:10 56° WSW 19:30:13 10° S
BREEZE M DEB (TANK) 3.9 19:25:49 10° WNW 19:30:27 89° NE 19:34:19 43° ESE
Cosmos 1727 Rocket 4.2 19:29:47 10° SSW 19:35:57 67° W 19:38:31 36° N
Cosmos 2369 Rocket 2.6 19:32:20 10° SSW 19:36:50 58° SSW 19:36:50 58° SSW
FALCON 9 R/B 3.2 19:31:06 10° W 19:48:22 58° SSW 19:49:07 55° S
ATLAS 3B CENTAUR R/B 4.3 19:43:23 10° W 19:57:45 34° SSW 20:00:27 28° S
